Tracking 27419 objects as of 9-Jun-2023
HD Live streaming from Space Station
objects crossing your sky now

DELTA 1 DEB

Track DELTA 1 DEB now!
10-day predictions


NORAD ID: 7076
Int'l Code: 1973-086BU
Perigee: 1,505.6 km
Apogee: 1,523.7 km
Inclination: 102.2 °
Period: 116.1 minutes
Semi major axis: 7885 km
RCS: 0.1249 m2 (medium)
Launch date: November 6, 1973
Source: United States (US)
Launch site: AIR FORCE WESTERN TEST RANGE (AFWTR)

Note: This is SATELLITE DEBRIS
Your satellite tracking list
Your tracking list is empty




NASA's NSSDC Master Catalog

Two Line Element Set (TLE):
1 07076U 73086BU  23159.69653204 -.00000007  00000-0  28892-3 0  9999
2 07076 102.1978 138.0635 0011476 302.6202 231.9601 12.39792748243430
Source of the keplerian elements: AFSPC